Flag for U.S.A. Weather past 2 weeks in Furnace Creek (Death Valley), California, U.S.A.

Now
57 °F

Passing clouds.


Feels Like: 57 °F
Forecast: 69 / 94 °F
Wind: 3 mph from Southeast

Location: Desert Rock Airport

Current Time: May 24, 2015 at 8:59:28 AM

Latest Report: May 24, 2015 at 5:52 AM


Visibility: 10 mi

Pressure: 29.83 "Hg

Humidity: 83%

Dew point: 52 °F

Location of Furnace Creek (Death Valley)Location

Historic Weather in Furnace Creek (Death Valley) — Graph

°F

Furnace Creek (Death Valley) temperature yesterday

Maximum temperature yesterday: 77 °F (at 2:52 PM)
Minimum temperature yesterday: 54 °F (at 12:52 AM)
Average temperature yesterday: 65 °F

Past Weeks' High & Low Weather Summary

 TemperatureHumidityPressure
High82 °F (May 11, 1:52 PM)83% (May 24, 5:52 AM)29.97 "Hg (May 24, 5:52 AM)
Low46 °F (May 10, 5:52 AM)6% (May 10, 1:52 PM)29.58 "Hg (May 14, 4:52 PM)
Average65 °F31%29.77 "Hg
* Reported May 9 5:52 AM — May 24 5:52 AM, Furnace Creek (Death Valley), Weather by CustomWeather, © 2015

Note: Actual official high and low records may vary slightly from our data, if they occured in-between our weather recording intervals... More about our weather records

Advertising

Furnace Creek (Death Valley) weather history for previous 24 hours

 ConditionsComfort  
Time TempWeatherWind HumidityBarometerVisibility
5:52 AM
Sun, May 24
57 °FPassing clouds.3 mph83%29.83 "Hg10 mi
4:52 AM58 °FMostly cloudy.6 mph78%29.82 "Hg10 mi
3:52 AM60 °FOvercast.9 mph65%29.81 "Hg10 mi
2:52 AM62 °FOvercast.3 mph60%29.80 "Hg10 mi
1:52 AM64 °FOvercast.7 mph50%29.80 "Hg10 mi
12:52 AM65 °FOvercast.7 mph47%29.79 "Hg10 mi
11:52 PM
Sat, May 23
66 °FPassing clouds.12 mph45%29.79 "Hg10 mi
10:52 PM68 °FMostly cloudy.10 mph38%29.78 "Hg10 mi
9:52 PM66 °FPassing clouds.6 mph49%29.78 "Hg10 mi
8:52 PM67 °FOvercast.6 mph49%29.77 "Hg10 mi
7:52 PM67 °FMostly cloudy.5 mph47%29.76 "Hg10 mi
6:56 PM70 °FOvercast.16 mph38%29.86 "Hg10 mi
5:52 PM74 °FMostly cloudy.12 mph25%29.75 "Hg10 mi
4:52 PM75 °FBroken clouds.17 mph24%29.75 "Hg10 mi
3:52 PM76 °FPassing clouds.10 mph24%29.77 "Hg10 mi
2:52 PM77 °FScattered clouds.16 mph24%29.79 "Hg10 mi
1:52 PM74 °FPassing clouds.10 mph28%29.83 "Hg10 mi
12:52 PM73 °FPassing clouds.N/A30%29.84 "Hg10 mi
11:52 AM71 °FSunny.15 mph32%29.87 "Hg10 mi
10:52 AM68 °FSunny.13 mph38%29.88 "Hg10 mi
9:52 AM65 °FSunny.9 mph42%29.89 "Hg10 mi
8:52 AM63 °FPartly sunny.9 mph45%29.90 "Hg10 mi
Weather by CustomWeather, © 2015

See weather overviewHow to use our weather pages